#timestamp,LO_Frequency,Hit,StdDev 
1629306015.2,286046990.2,N
1629306035.1,286046990.5,N
1629306036.0,286046990.5,N
1629306055.8,286046989.8,N
1629306075.7,286046987.0,Y
1629306095.5,286046997.2,P
1629306115.3,286046997.8,N
1629306135.2,286046995.3,N
1629306155.9,286046996.2,N
1629306175.7,286046993.6,N
1629306195.6,286046992.1,Y
1629306215.4,286046996.6,P
1629306235.3,286046998.5,N
1629306255.1,286047000.9,N
1629306256.0,286047000.9,N
1629306275.8,286046999.3,N
1629306295.7,286046996.7,N
1629306315.5,286046997.6,N
1629306335.3,286046995.1,N
1629306355.2,286046996.3,N
1629306375.0,286046995.5,N
1629306375.9,286046995.5,N
1629306395.8,286046995.4,N
1629306415.6,286046998.0,N
1629306435.4,286046998.5,N
1629306455.3,286046999.5,N
1629306475.1,286046997.6,N
1629306476.0,286046997.6,N
1629306495.8,286046997.4,N
1629306515.7,286046993.7,Y
1629306535.5,286046997.2,P
1629306555.4,286046999.1,P
1629306575.2,286046996.5,P
1629306595.0,286046999.2,N
1629306595.9,286046999.2,N
1629306615.8,286046996.9,N
1629306635.6,286046998.7,N
1629306655.4,286046998.5,N
1629306675.3,286046997.2,N
1629306695.1,286046995.3,Y
1629306715.9,286047000.5,P
1629306735.7,286047000.4,N
1629306755.5,286047004.4,P
1629306775.4,286047001.6,N
1629306795.2,286047001.9,N
1629306815.0,286047000.8,N
1629306815.9,286047000.8,N
1629306835.8,286046999.8,N
1629306855.6,286047000.0,N
1629306875.5,286047001.7,N
1629306895.3,286047003.4,N
1629306915.1,286047002.9,N
1629306935.9,286047007.2,Y
1629306955.7,286047005.7,P
1629306975.6,286047008.9,P
1629306995.4,286047008.9,N
1629307015.2,286047009.0,N
1629307035.1,286047009.0,N
1629307036.0,286047009.0,Y
1629307055.8,286047002.1,P
1629307075.7,286047003.9,N
1629307095.5,286047001.6,N
1629307115.3,286047001.4,N
1629307135.2,286047000.0,N
1629307155.0,286047005.9,N
1629307155.9,286047005.9,N
1629307175.8,286047006.8,N
1629307195.6,286047008.0,Y
1629307215.4,286047005.1,P
1629307235.3,286047005.8,P
1629307255.1,286047007.6,P
1629307275.8,286047008.8,Y
1629307295.7,286047002.1,P
1629307315.5,286047002.0,N
1629307335.4,286047005.3,P
1629307355.2,286047004.8,N
1629307375.0,286047007.1,Y
1629307375.9,286047007.1,P
1629307395.8,286047004.1,N
1629307415.6,286047003.7,N
1629307435.4,286047000.8,N
1629307455.3,286047002.5,N
1629307475.1,286047001.7,N
1629307495.9,286047000.5,N
1629307515.7,286046999.9,N
1629307535.5,286046999.5,N
1629307555.4,286046997.2,N
1629307575.2,286046997.6,N
1629307595.0,286046993.9,N
1629307595.9,286046993.9,N
1629307615.8,286046992.2,N
1629307635.6,286046990.1,N
1629307655.5,286046990.7,N
1629307705.3,286046991.1,E
1629307715.3,286046991.8,N
1629307735.6,286046996.1,P
1629307755.5,286046995.0,N
1629307775.3,286046995.7,N
1629307795.1,286046995.5,N
1629307815.9,286046995.9,N
1629307835.7,286046993.4,Y
1629307855.5,286047000.0,P
1629307875.4,286047001.2,N
1629307895.2,286046998.8,N
1629307915.1,286046997.9,N
1629307916.0,286046997.9,N
1629307935.8,286046994.9,N
1629307955.6,286046996.9,N
1629307975.5,286047001.1,N
1629307995.3,286046998.9,N
1629308015.2,286046999.6,N
1629308035.9,286047001.1,N
1629308055.7,286046998.1,N
1629308075.6,286047002.5,N
1629308095.4,286047001.1,N
1629308115.2,286047005.4,N
1629308135.1,286047007.5,N
1629308136.0,286047007.5,N
1629308155.8,286047005.0,N
1629308175.7,286047004.8,N
1629308195.5,286047003.4,N
1629308215.3,286047005.3,N
1629308235.2,286047004.4,N
1629308255.0,286047002.6,N
1629308255.9,286047002.6,N
1629308275.7,286047002.7,N
1629308295.6,286047001.6,N
1629308315.4,286047000.5,N
1629308335.3,286047000.5,N
1629308355.1,286047004.4,N
1629308375.8,286047002.1,N
1629308395.7,286047001.9,N
1629308415.5,286047002.0,N
1629308435.4,286047005.3,N
1629308455.2,286047009.8,Y
1629308475.0,286047008.9,P
1629308475.9,286047008.9,N
1629308495.8,286047008.6,N
1629308515.6,286047008.1,N
1629308535.4,286047010.7,Y
1629308555.3,286046999.8,P
1629308575.1,286047003.6,N
1629308595.9,286047003.3,N
1629308615.7,286047003.5,N
1629308635.5,286047001.6,N
1629308655.4,286047001.0,N
1629308675.2,286047001.0,N
1629308695.0,286046997.3,N
1629308695.9,286046997.3,N
1629308715.8,286046993.4,N
1629308735.6,286046993.7,N
1629308755.5,286046993.7,N
1629308775.3,286046993.5,N
1629308795.1,286046997.6,N
1629308815.9,286046997.5,N
1629308835.7,286046997.5,N
1629308855.5,286046995.5,N
1629308875.4,286046995.6,N
1629308895.2,286046997.5,N
1629308915.1,286046995.1,N
1629308916.0,286046995.1,N
1629308935.8,286046995.8,N
1629308955.6,286046994.5,N
1629308975.5,286046994.5,N
1629308995.3,286046992.9,N
1629309015.1,286046997.6,N
1629309035.9,286046999.3,N
1629309055.7,286047001.8,N
1629309075.6,286047003.7,N
1629309095.4,286047001.0,N
1629309115.2,286047000.8,N
1629309135.1,286047001.5,N
1629309136.0,286047001.5,N
1629309155.8,286047005.4,N
1629309175.7,286047009.2,N
1629309195.5,286047004.9,N
1629309215.3,286047004.6,N
1629309235.2,286047007.6,N
1629309255.0,286047006.5,N
1629309255.9,286047006.5,N
1629309275.7,286047005.0,N
1629309295.6,286047003.3,N
1629309315.4,286047003.2,N
1629309335.3,286047003.6,N
1629309355.1,286047002.2,N
1629309356.0,286047002.2,N
1629309375.8,286047000.2,N
1629309395.7,286046999.8,N
1629309415.5,286047001.6,N
1629309435.3,286047002.0,N
1629309455.2,286047001.4,N
1629309475.0,286047004.8,N
1629309475.9,286047004.8,N
1629309495.8,286047007.5,N
1629309515.6,286047003.0,N
1629309535.4,286047005.5,N
1629309555.3,286047003.7,N
1629309575.1,286047002.6,N
1629309595.9,286047002.7,N
